Year,Month,Day,Hour,Minute,Value (Times are PST for insolation in W/m^2)
2007,03,30,00,00,0.00
2007,03,30,00,01,0.00
2007,03,30,00,02,0.00
2007,03,30,00,03,0.00
2007,03,30,00,04,0.00
2007,03,30,00,05,0.00
2007,03,30,00,06,0.00
2007,03,30,00,07,0.00
2007,03,30,00,08,0.00
2007,03,30,00,09,0.00
2007,03,30,00,10,0.00
2007,03,30,00,11,0.00
2007,03,30,00,12,0.00
2007,03,30,00,13,0.00
2007,03,30,00,14,0.00
2007,03,30,00,15,0.00
2007,03,30,00,16,0.00
2007,03,30,00,17,0.00
2007,03,30,00,18,0.00
2007,03,30,00,19,0.00
2007,03,30,00,20,0.00
2007,03,30,00,21,0.00
2007,03,30,00,22,0.00
2007,03,30,00,23,0.00
2007,03,30,00,24,0.00
2007,03,30,00,25,0.00
2007,03,30,00,26,0.00
2007,03,30,00,27,0.00
2007,03,30,00,28,0.00
2007,03,30,00,29,0.00
2007,03,30,00,30,0.00
2007,03,30,00,31,0.00
2007,03,30,00,32,0.00
2007,03,30,00,33,0.00
2007,03,30,00,34,0.00
2007,03,30,00,35,0.00
2007,03,30,00,36,0.00
2007,03,30,00,37,0.00
2007,03,30,00,38,0.00
2007,03,30,00,39,0.00
2007,03,30,00,40,0.00
2007,03,30,00,41,0.00
2007,03,30,00,42,0.00
2007,03,30,00,43,0.00
2007,03,30,00,44,0.00
2007,03,30,00,45,0.00
2007,03,30,00,46,0.00
2007,03,30,00,47,0.00
2007,03,30,00,48,0.00
2007,03,30,00,49,0.00
2007,03,30,00,50,0.00
2007,03,30,00,51,0.00
2007,03,30,00,52,0.00
2007,03,30,00,53,0.00
2007,03,30,00,54,0.00
2007,03,30,00,55,0.00
2007,03,30,00,56,0.00
2007,03,30,00,57,0.00
2007,03,30,00,58,0.00
2007,03,30,00,59,0.00
2007,03,30,01,00,0.00
2007,03,30,01,01,0.00
2007,03,30,01,02,0.00
2007,03,30,01,03,0.00
2007,03,30,01,04,0.00
2007,03,30,01,05,0.00
2007,03,30,01,06,0.00
2007,03,30,01,07,0.00
2007,03,30,01,08,0.00
2007,03,30,01,09,0.00
2007,03,30,01,10,0.00
2007,03,30,01,11,0.00
2007,03,30,01,12,0.00
2007,03,30,01,13,0.00
2007,03,30,01,14,0.00
2007,03,30,01,15,0.00
2007,03,30,01,16,0.00
2007,03,30,01,17,0.00
2007,03,30,01,18,0.00
2007,03,30,01,19,0.00
2007,03,30,01,20,0.00
2007,03,30,01,21,0.00
2007,03,30,01,22,0.00
2007,03,30,01,23,0.00
2007,03,30,01,24,0.00
2007,03,30,01,25,0.00
2007,03,30,01,26,0.00
2007,03,30,01,27,0.00
2007,03,30,01,28,0.00
2007,03,30,01,29,0.00
2007,03,30,01,30,0.00
2007,03,30,01,31,0.00
2007,03,30,01,32,0.00
2007,03,30,01,33,0.00
2007,03,30,01,34,0.00
2007,03,30,01,35,0.00
2007,03,30,01,36,0.00
2007,03,30,01,37,0.00
2007,03,30,01,38,0.00
2007,03,30,01,39,0.00
2007,03,30,01,40,0.00
2007,03,30,01,41,0.00
2007,03,30,01,42,0.00
2007,03,30,01,43,0.00
2007,03,30,01,44,0.00
2007,03,30,01,45,0.00
2007,03,30,01,46,0.00
2007,03,30,01,47,0.00
2007,03,30,01,48,0.00
2007,03,30,01,49,0.00
2007,03,30,01,50,0.00
2007,03,30,01,51,0.00
2007,03,30,01,52,0.00
2007,03,30,01,53,0.00
2007,03,30,01,54,0.00
2007,03,30,01,55,0.00
2007,03,30,01,56,0.00
2007,03,30,01,57,0.00
2007,03,30,01,58,0.00
2007,03,30,01,59,0.00
2007,03,30,02,00,0.00
2007,03,30,02,01,0.00
2007,03,30,02,02,0.00
2007,03,30,02,03,0.00
2007,03,30,02,04,0.00
2007,03,30,02,05,0.00
2007,03,30,02,06,0.00
2007,03,30,02,07,0.00
2007,03,30,02,08,0.00
2007,03,30,02,09,0.00
2007,03,30,02,10,0.00
2007,03,30,02,11,0.00
2007,03,30,02,12,0.00
2007,03,30,02,13,0.00
2007,03,30,02,14,0.00
2007,03,30,02,15,0.00
2007,03,30,02,16,0.00
2007,03,30,02,17,0.00
2007,03,30,02,18,0.00
2007,03,30,02,19,0.00
2007,03,30,02,20,0.00
2007,03,30,02,21,0.00
2007,03,30,02,22,0.00
2007,03,30,02,23,0.00
2007,03,30,02,24,0.00
2007,03,30,02,25,0.00
2007,03,30,02,26,0.00
2007,03,30,02,27,0.00
2007,03,30,02,28,0.00
2007,03,30,02,29,0.00
2007,03,30,02,30,0.00
2007,03,30,02,31,0.00
2007,03,30,02,32,0.00
2007,03,30,02,33,0.00
2007,03,30,02,34,0.00
2007,03,30,02,35,0.00
2007,03,30,02,36,0.00
2007,03,30,02,37,0.00
2007,03,30,02,38,0.00
2007,03,30,02,39,0.00
2007,03,30,02,40,0.00
2007,03,30,02,41,0.00
2007,03,30,02,42,0.00
2007,03,30,02,43,0.00
2007,03,30,02,44,0.00
2007,03,30,02,45,0.00
2007,03,30,02,46,0.00
2007,03,30,02,47,0.00
2007,03,30,02,48,0.00
2007,03,30,02,49,0.00
2007,03,30,02,50,0.00
2007,03,30,02,51,0.00
2007,03,30,02,52,0.00
2007,03,30,02,53,0.00
2007,03,30,02,54,0.00
2007,03,30,02,55,0.00
2007,03,30,02,56,0.00
2007,03,30,02,57,0.00
2007,03,30,02,58,0.00
2007,03,30,02,59,0.00
2007,03,30,03,00,0.00
2007,03,30,03,01,0.00
2007,03,30,03,02,0.00
2007,03,30,03,03,0.00
2007,03,30,03,04,0.00
2007,03,30,03,05,0.00
2007,03,30,03,06,0.00
2007,03,30,03,07,0.00
2007,03,30,03,08,0.00
2007,03,30,03,09,0.00
2007,03,30,03,10,0.00
2007,03,30,03,11,0.00
2007,03,30,03,12,0.00
2007,03,30,03,13,0.00
2007,03,30,03,14,0.00
2007,03,30,03,15,0.00
2007,03,30,03,16,0.00
2007,03,30,03,17,0.00
2007,03,30,03,18,0.00
2007,03,30,03,19,0.00
2007,03,30,03,20,0.00
2007,03,30,03,21,0.00
2007,03,30,03,22,0.00
2007,03,30,03,23,0.00
2007,03,30,03,24,0.00
2007,03,30,03,25,0.00
2007,03,30,03,26,0.00
2007,03,30,03,27,0.00
2007,03,30,03,28,0.00
2007,03,30,03,29,0.00
2007,03,30,03,30,0.00
2007,03,30,03,31,0.00
2007,03,30,03,32,0.00
2007,03,30,03,33,0.00
2007,03,30,03,34,0.00
2007,03,30,03,35,0.00
2007,03,30,03,36,0.00
2007,03,30,03,37,0.00
2007,03,30,03,38,0.00
2007,03,30,03,39,0.00
2007,03,30,03,40,0.00
2007,03,30,03,41,0.00
2007,03,30,03,42,0.00
2007,03,30,03,43,0.00
2007,03,30,03,44,0.00
2007,03,30,03,45,0.00
2007,03,30,03,46,0.00
2007,03,30,03,47,0.00
2007,03,30,03,48,0.00
2007,03,30,03,49,0.00
2007,03,30,03,50,0.00
2007,03,30,03,51,0.00
2007,03,30,03,52,0.00
2007,03,30,03,53,0.00
2007,03,30,03,54,0.00
2007,03,30,03,55,0.00
2007,03,30,03,56,0.00
2007,03,30,03,57,0.00
2007,03,30,03,58,0.00
2007,03,30,03,59,0.00
2007,03,30,04,00,0.00
2007,03,30,04,01,0.00
2007,03,30,04,02,0.00
2007,03,30,04,03,0.00
2007,03,30,04,04,0.00
2007,03,30,04,05,0.00
2007,03,30,04,06,0.00
2007,03,30,04,07,0.00
2007,03,30,04,08,0.00
2007,03,30,04,09,0.00
2007,03,30,04,10,0.00
2007,03,30,04,11,0.00
2007,03,30,04,12,0.00
2007,03,30,04,13,0.00
2007,03,30,04,14,0.00
2007,03,30,04,15,0.00
2007,03,30,04,16,0.00
2007,03,30,04,17,0.00
2007,03,30,04,18,0.00
2007,03,30,04,19,0.00
2007,03,30,04,20,0.00
2007,03,30,04,21,0.00
2007,03,30,04,22,0.00
2007,03,30,04,23,0.00
2007,03,30,04,24,0.00
2007,03,30,04,25,0.00
2007,03,30,04,26,0.00
2007,03,30,04,27,0.00
2007,03,30,04,28,0.00
2007,03,30,04,29,0.00
2007,03,30,04,30,0.00
2007,03,30,04,31,0.00
2007,03,30,04,32,0.00
2007,03,30,04,33,0.00
2007,03,30,04,34,0.00
2007,03,30,04,35,0.00
2007,03,30,04,36,0.00
2007,03,30,04,37,0.00
2007,03,30,04,38,0.00
2007,03,30,04,39,0.00
2007,03,30,04,40,0.00
2007,03,30,04,41,0.00
2007,03,30,04,42,0.00
2007,03,30,04,43,0.00
2007,03,30,04,44,0.00
2007,03,30,04,45,0.00
2007,03,30,04,46,0.00
2007,03,30,04,47,0.00
2007,03,30,04,48,0.00
2007,03,30,04,49,0.00
2007,03,30,04,50,0.00
2007,03,30,04,51,0.00
2007,03,30,04,52,0.00
2007,03,30,04,53,0.00
2007,03,30,04,54,0.00
2007,03,30,04,55,0.00
2007,03,30,04,56,0.00
2007,03,30,04,57,0.00
2007,03,30,04,58,0.00
2007,03,30,04,59,0.00
2007,03,30,05,00,0.00
2007,03,30,05,01,0.00
2007,03,30,05,02,0.00
2007,03,30,05,03,0.00
2007,03,30,05,04,0.00
2007,03,30,05,05,0.00
2007,03,30,05,06,0.00
2007,03,30,05,07,0.00
2007,03,30,05,08,0.00
2007,03,30,05,09,0.00
2007,03,30,05,10,0.00
2007,03,30,05,11,0.00
2007,03,30,05,12,0.00
2007,03,30,05,13,0.00
2007,03,30,05,14,0.00
2007,03,30,05,15,0.00
2007,03,30,05,16,0.00
2007,03,30,05,17,0.00
2007,03,30,05,18,0.00
2007,03,30,05,19,0.00
2007,03,30,05,20,0.00
2007,03,30,05,21,0.00
2007,03,30,05,22,0.00
2007,03,30,05,23,0.00
2007,03,30,05,24,0.00
2007,03,30,05,25,0.00
2007,03,30,05,26,0.00
2007,03,30,05,27,0.00
2007,03,30,05,28,0.00
2007,03,30,05,29,0.00
2007,03,30,05,30,0.00
2007,03,30,05,31,0.00
2007,03,30,05,32,0.00
2007,03,30,05,33,0.00
2007,03,30,05,34,0.00
2007,03,30,05,35,0.00
2007,03,30,05,36,0.00
2007,03,30,05,37,0.00
2007,03,30,05,38,0.00
2007,03,30,05,39,0.00
2007,03,30,05,40,0.00
2007,03,30,05,41,0.00
2007,03,30,05,42,0.00
2007,03,30,05,43,0.00
2007,03,30,05,44,0.00
2007,03,30,05,45,0.00
2007,03,30,05,46,0.00
2007,03,30,05,47,0.00
2007,03,30,05,48,0.00
2007,03,30,05,49,0.00
2007,03,30,05,50,0.00
2007,03,30,05,51,0.00
2007,03,30,05,52,0.00
2007,03,30,05,53,0.00
2007,03,30,05,54,0.00
2007,03,30,05,55,0.00
2007,03,30,05,56,0.00
2007,03,30,05,57,0.00
2007,03,30,05,58,0.00
2007,03,30,05,59,0.00
2007,03,30,06,00,0.00
2007,03,30,06,01,0.00
2007,03,30,06,02,0.00
2007,03,30,06,03,0.00
2007,03,30,06,04,0.00
2007,03,30,06,05,0.00
2007,03,30,06,06,0.00
2007,03,30,06,07,0.00
2007,03,30,06,08,0.00
2007,03,30,06,09,0.00
2007,03,30,06,10,0.00
2007,03,30,06,11,0.00
2007,03,30,06,12,0.00
2007,03,30,06,13,0.00
2007,03,30,06,14,0.00
2007,03,30,06,15,0.00
2007,03,30,06,16,0.00
2007,03,30,06,17,0.00
2007,03,30,06,18,0.00
2007,03,30,06,19,0.00
2007,03,30,06,20,0.00
2007,03,30,06,21,0.00
2007,03,30,06,22,0.00
2007,03,30,06,23,0.00
2007,03,30,06,24,0.00
2007,03,30,06,25,0.00
2007,03,30,06,26,0.00
2007,03,30,06,27,0.00
2007,03,30,06,28,0.00
2007,03,30,06,29,0.00
2007,03,30,06,30,0.00
2007,03,30,06,31,0.00
2007,03,30,06,32,0.00
2007,03,30,06,33,0.00
2007,03,30,06,34,0.00
2007,03,30,06,35,0.00
2007,03,30,06,36,0.00
2007,03,30,06,37,0.00
2007,03,30,06,38,0.00
2007,03,30,06,39,0.00
2007,03,30,06,40,0.00
2007,03,30,06,41,0.00
2007,03,30,06,42,0.00
2007,03,30,06,43,0.00
2007,03,30,06,44,0.00
2007,03,30,06,45,0.00
2007,03,30,06,46,0.00
2007,03,30,06,47,0.00
2007,03,30,06,48,0.00
2007,03,30,06,49,0.00
2007,03,30,06,50,0.00
2007,03,30,06,51,0.00
2007,03,30,06,52,0.00
2007,03,30,06,53,0.00
2007,03,30,06,54,0.00
2007,03,30,06,55,0.00
2007,03,30,06,56,0.00
2007,03,30,06,57,0.00
2007,03,30,06,58,0.00
2007,03,30,06,59,0.00
2007,03,30,07,00,0.00
2007,03,30,07,01,0.00
2007,03,30,07,02,0.00
2007,03,30,07,03,0.00
2007,03,30,07,04,0.00
2007,03,30,07,05,0.00
2007,03,30,07,06,0.00
2007,03,30,07,07,0.00
2007,03,30,07,08,0.00
2007,03,30,07,09,3.50
2007,03,30,07,10,5.00
2007,03,30,07,11,5.00
2007,03,30,07,12,5.00
2007,03,30,07,13,5.00
2007,03,30,07,14,5.00
2007,03,30,07,15,5.00
2007,03,30,07,16,5.10
2007,03,30,07,17,7.20
2007,03,30,07,18,9.00
2007,03,30,07,19,9.40
2007,03,30,07,20,11.00
2007,03,30,07,21,11.00
2007,03,30,07,22,11.30
2007,03,30,07,23,12.70
2007,03,30,07,24,14.00
2007,03,30,07,25,14.90
2007,03,30,07,26,16.00
2007,03,30,07,27,17.10
2007,03,30,07,28,18.00
2007,03,30,07,29,18.60
2007,03,30,07,30,20.20
2007,03,30,07,31,22.30
2007,03,30,07,32,24.40
2007,03,30,07,33,25.70
2007,03,30,07,34,27.60
2007,03,30,07,35,29.70
2007,03,30,07,36,31.80
2007,03,30,07,37,32.00
2007,03,30,07,38,33.00
2007,03,30,07,39,33.10
2007,03,30,07,40,35.20
2007,03,30,07,41,37.30
2007,03,30,07,42,39.60
2007,03,30,07,43,43.80
2007,03,30,07,44,50.30
2007,03,30,07,45,53.10
2007,03,30,07,46,51.00
2007,03,30,07,47,50.20
2007,03,30,07,48,48.10
2007,03,30,07,49,48.00
2007,03,30,07,50,51.60
2007,03,30,07,51,59.00
2007,03,30,07,52,70.50
2007,03,30,07,53,73.40
2007,03,30,07,54,69.90
2007,03,30,07,55,71.20
2007,03,30,07,56,75.00
2007,03,30,07,57,85.70
2007,03,30,07,58,96.50
2007,03,30,07,59,103.40
2007,03,30,08,00,97.70
2007,03,30,08,01,104.60
2007,03,30,08,02,144.60
2007,03,30,08,03,115.50
2007,03,30,08,04,92.70
2007,03,30,08,05,90.80
2007,03,30,08,06,88.20
2007,03,30,08,07,83.00
2007,03,30,08,08,83.00
2007,03,30,08,09,84.00
2007,03,30,08,10,91.30
2007,03,30,08,11,131.90
2007,03,30,08,12,182.40
2007,03,30,08,13,199.70
2007,03,30,08,14,205.10
2007,03,30,08,15,206.00
2007,03,30,08,16,204.80
2007,03,30,08,17,202.60
2007,03,30,08,18,198.40
2007,03,30,08,19,185.00
2007,03,30,08,20,121.80
2007,03,30,08,21,93.40
2007,03,30,08,22,91.00
2007,03,30,08,23,195.40
2007,03,30,08,24,212.70
2007,03,30,08,25,218.10
2007,03,30,08,26,220.70
2007,03,30,08,27,228.00
2007,03,30,08,28,235.80
2007,03,30,08,29,245.00
2007,03,30,08,30,252.80
2007,03,30,08,31,260.10
2007,03,30,08,32,266.40
2007,03,30,08,33,269.70
2007,03,30,08,34,269.30
2007,03,30,08,35,267.00
2007,03,30,08,36,268.00
2007,03,30,08,37,272.90
2007,03,30,08,38,281.40
2007,03,30,08,39,288.20
2007,03,30,08,40,294.90
2007,03,30,08,41,301.90
2007,03,30,08,42,307.80
2007,03,30,08,43,316.20
2007,03,30,08,44,327.30
2007,03,30,08,45,340.90
2007,03,30,08,46,354.40
2007,03,30,08,47,364.00
2007,03,30,08,48,369.10
2007,03,30,08,49,371.50
2007,03,30,08,50,376.60
2007,03,30,08,51,380.60
2007,03,30,08,52,382.30
2007,03,30,08,53,379.50
2007,03,30,08,54,376.00
2007,03,30,08,55,370.30
2007,03,30,08,56,366.40
2007,03,30,08,57,352.50
2007,03,30,08,58,350.90
2007,03,30,08,59,364.10
2007,03,30,09,00,354.50
2007,03,30,09,01,335.70
2007,03,30,09,02,329.00
2007,03,30,09,03,226.80
2007,03,30,09,04,183.00
2007,03,30,09,05,317.20
2007,03,30,09,06,354.00
2007,03,30,09,07,348.60
2007,03,30,09,08,343.70
2007,03,30,09,09,344.90
2007,03,30,09,10,346.00
2007,03,30,09,11,352.40
2007,03,30,09,12,359.50
2007,03,30,09,13,364.80
2007,03,30,09,14,370.80
2007,03,30,09,15,381.50
2007,03,30,09,16,397.00
2007,03,30,09,17,411.00
2007,03,30,09,18,426.00
2007,03,30,09,19,460.80
2007,03,30,09,20,478.20
2007,03,30,09,21,493.50
2007,03,30,09,22,506.10
2007,03,30,09,23,516.20
2007,03,30,09,24,519.60
2007,03,30,09,25,521.20
2007,03,30,09,26,522.00
2007,03,30,09,27,523.50
2007,03,30,09,28,522.50
2007,03,30,09,29,525.20
2007,03,30,09,30,526.00
2007,03,30,09,31,490.90
2007,03,30,09,32,503.10
2007,03,30,09,33,504.00
2007,03,30,09,34,505.40
2007,03,30,09,35,531.90
2007,03,30,09,36,539.10
2007,03,30,09,37,533.40
2007,03,30,09,38,531.00
2007,03,30,09,39,493.40
2007,03,30,09,40,388.00
2007,03,30,09,41,388.00
2007,03,30,09,42,328.40
2007,03,30,09,43,247.60
2007,03,30,09,44,260.00
2007,03,30,09,45,253.60
2007,03,30,09,46,246.00
2007,03,30,09,47,424.50
2007,03,30,09,48,548.00
2007,03,30,09,49,542.80
2007,03,30,09,50,562.10
2007,03,30,09,51,571.00
2007,03,30,09,52,571.00
2007,03,30,09,53,405.20
2007,03,30,09,54,350.90
2007,03,30,09,55,348.00
2007,03,30,09,56,489.50
2007,03,30,09,57,510.20
2007,03,30,09,58,513.60
2007,03,30,09,59,519.00
2007,03,30,10,00,519.00
2007,03,30,10,01,459.00
2007,03,30,10,02,266.20
2007,03,30,10,03,252.90
2007,03,30,10,04,219.00
2007,03,30,10,05,205.80
2007,03,30,10,06,205.40
2007,03,30,10,07,211.30
2007,03,30,10,08,214.40
2007,03,30,10,09,206.90
2007,03,30,10,10,199.00
2007,03,30,10,11,191.10
2007,03,30,10,12,185.90
2007,03,30,10,13,183.50
2007,03,30,10,14,186.80
2007,03,30,10,15,199.20
2007,03,30,10,16,219.90
2007,03,30,10,17,248.10
2007,03,30,10,18,251.00
2007,03,30,10,19,251.00
2007,03,30,10,20,582.50
2007,03,30,10,21,589.70
2007,03,30,10,22,583.20
2007,03,30,10,23,609.20
2007,03,30,10,24,594.00
2007,03,30,10,25,547.50
2007,03,30,10,26,439.00
2007,03,30,10,27,439.00
2007,03,30,10,28,439.00
2007,03,30,10,29,445.70
2007,03,30,10,30,491.50
2007,03,30,10,31,544.00
2007,03,30,10,32,552.00
2007,03,30,10,33,480.80
2007,03,30,10,34,418.20
2007,03,30,10,35,419.50
2007,03,30,10,36,430.00
2007,03,30,10,37,432.00
2007,03,30,10,38,509.60
2007,03,30,10,39,499.00
2007,03,30,10,40,458.90
2007,03,30,10,41,512.60
2007,03,30,10,42,519.00
2007,03,30,10,43,523.20
2007,03,30,10,44,606.70
2007,03,30,10,45,645.70
2007,03,30,10,46,686.00
2007,03,30,10,47,701.20
2007,03,30,10,48,653.50
2007,03,30,10,49,589.00
2007,03,30,10,50,589.00
2007,03,30,10,51,698.00
2007,03,30,10,52,875.00
2007,03,30,10,53,875.00
2007,03,30,10,54,672.80
2007,03,30,10,55,467.90
2007,03,30,10,56,446.60
2007,03,30,10,57,444.30
2007,03,30,10,58,445.70
2007,03,30,10,59,445.30
2007,03,30,11,00,432.80
2007,03,30,11,01,417.80
2007,03,30,11,02,410.70
2007,03,30,11,03,403.70
2007,03,30,11,04,399.20
2007,03,30,11,05,394.20
2007,03,30,11,06,387.20
2007,03,30,11,07,371.70
2007,03,30,11,08,359.00
2007,03,30,11,09,352.00
2007,03,30,11,10,348.50
2007,03,30,11,11,349.50
2007,03,30,11,12,349.20
2007,03,30,11,13,353.80
2007,03,30,11,14,358.90
2007,03,30,11,15,363.80
2007,03,30,11,16,366.00
2007,03,30,11,17,366.50
2007,03,30,11,18,368.10
2007,03,30,11,19,369.00
2007,03,30,11,20,365.90
2007,03,30,11,21,359.30
2007,03,30,11,22,353.20
2007,03,30,11,23,349.00
2007,03,30,11,24,351.20
2007,03,30,11,25,352.90
2007,03,30,11,26,354.80
2007,03,30,11,27,358.60
2007,03,30,11,28,353.00
2007,03,30,11,29,342.50
2007,03,30,11,30,333.80
2007,03,30,11,31,331.70
2007,03,30,11,32,330.80
2007,03,30,11,33,334.50
2007,03,30,11,34,334.40
2007,03,30,11,35,327.10
2007,03,30,11,36,317.40
2007,03,30,11,37,311.00
2007,03,30,11,38,308.00
2007,03,30,11,39,308.00
2007,03,30,11,40,305.90
2007,03,30,11,41,302.40
2007,03,30,11,42,297.70
2007,03,30,11,43,292.00
2007,03,30,11,44,286.70
2007,03,30,11,45,282.00
2007,03,30,11,46,275.40
2007,03,30,11,47,266.80
2007,03,30,11,48,259.10
2007,03,30,11,49,253.70
2007,03,30,11,50,250.20
2007,03,30,11,51,246.20
2007,03,30,11,52,243.10
2007,03,30,11,53,244.20
2007,03,30,11,54,246.70
2007,03,30,11,55,252.30
2007,03,30,11,56,259.40
2007,03,30,11,57,268.10
2007,03,30,11,58,278.10
2007,03,30,11,59,283.00
2007,03,30,12,00,279.40
2007,03,30,12,01,268.60
2007,03,30,12,02,256.80
2007,03,30,12,03,248.40
2007,03,30,12,04,246.00
2007,03,30,12,05,247.10
2007,03,30,12,06,249.30
2007,03,30,12,07,248.60
2007,03,30,12,08,245.20
2007,03,30,12,09,238.80
2007,03,30,12,10,231.40
2007,03,30,12,11,225.80
2007,03,30,12,12,223.20
2007,03,30,12,13,226.80
2007,03,30,12,14,231.80
2007,03,30,12,15,239.40
2007,03,30,12,16,243.30
2007,03,30,12,17,246.30
2007,03,30,12,18,248.00
2007,03,30,12,19,247.20
2007,03,30,12,20,242.10
2007,03,30,12,21,234.90
2007,03,30,12,22,227.30
2007,03,30,12,23,218.60
2007,03,30,12,24,211.20
2007,03,30,12,25,206.50
2007,03,30,12,26,203.90
2007,03,30,12,27,202.00
2007,03,30,12,28,204.40
2007,03,30,12,29,209.20
2007,03,30,12,30,213.10
2007,03,30,12,31,214.00
2007,03,30,12,32,213.20
2007,03,30,12,33,211.40
2007,03,30,12,34,207.60
2007,03,30,12,35,202.50
2007,03,30,12,36,197.50
2007,03,30,12,37,195.00
2007,03,30,12,38,197.10
2007,03,30,12,39,200.60
2007,03,30,12,40,207.10
2007,03,30,12,41,214.40
2007,03,30,12,42,220.80
2007,03,30,12,43,223.50
2007,03,30,12,44,225.00
2007,03,30,12,45,225.00
2007,03,30,12,46,220.20
2007,03,30,12,47,197.70
2007,03,30,12,48,161.50
2007,03,30,12,49,132.00
2007,03,30,12,50,110.10
2007,03,30,12,51,99.70
2007,03,30,12,52,99.20
2007,03,30,12,53,112.60
2007,03,30,12,54,139.40
2007,03,30,12,55,171.60
2007,03,30,12,56,192.00
2007,03,30,12,57,195.00
2007,03,30,12,58,192.30
2007,03,30,12,59,190.10
2007,03,30,13,00,191.90
2007,03,30,13,01,199.20
2007,03,30,13,02,204.20
2007,03,30,13,03,205.70
2007,03,30,13,04,203.60
2007,03,30,13,05,200.80
2007,03,30,13,06,195.80
2007,03,30,13,07,193.00
2007,03,30,13,08,193.70
2007,03,30,13,09,195.00
2007,03,30,13,10,195.90
2007,03,30,13,11,197.00
2007,03,30,13,12,196.00
2007,03,30,13,13,193.80
2007,03,30,13,14,192.40
2007,03,30,13,15,189.50
2007,03,30,13,16,185.90
2007,03,30,13,17,183.60
2007,03,30,13,18,183.00
2007,03,30,13,19,188.70
2007,03,30,13,20,198.50
2007,03,30,13,21,207.70
2007,03,30,13,22,212.80
2007,03,30,13,23,213.00
2007,03,30,13,24,204.10
2007,03,30,13,25,207.70
2007,03,30,13,26,215.60
2007,03,30,13,27,225.40
2007,03,30,13,28,226.60
2007,03,30,13,29,224.50
2007,03,30,13,30,224.80
2007,03,30,13,31,229.30
2007,03,30,13,32,230.00
2007,03,30,13,33,230.00
2007,03,30,13,34,230.00
2007,03,30,13,35,231.10
2007,03,30,13,36,230.40
2007,03,30,13,37,221.50
2007,03,30,13,38,211.80
2007,03,30,13,39,210.30
2007,03,30,13,40,211.00
2007,03,30,13,41,208.00
2007,03,30,13,42,207.00
2007,03,30,13,43,207.00
2007,03,30,13,44,207.00
2007,03,30,13,45,204.20
2007,03,30,13,46,206.90
2007,03,30,13,47,207.40
2007,03,30,13,48,216.00
2007,03,30,13,49,215.20
2007,03,30,13,50,211.40
2007,03,30,13,51,215.10
2007,03,30,13,52,224.80
2007,03,30,13,53,231.70
2007,03,30,13,54,234.60
2007,03,30,13,55,232.00
2007,03,30,13,56,233.80
2007,03,30,13,57,236.50
2007,03,30,13,58,235.40
2007,03,30,13,59,227.70
2007,03,30,14,00,221.20
2007,03,30,14,01,220.00
2007,03,30,14,02,218.70
2007,03,30,14,03,218.00
2007,03,30,14,04,209.80
2007,03,30,14,05,206.20
2007,03,30,14,06,214.50
2007,03,30,14,07,227.10
2007,03,30,14,08,238.00
2007,03,30,14,09,242.80
2007,03,30,14,10,244.60
2007,03,30,14,11,250.30
2007,03,30,14,12,241.90
2007,03,30,14,13,228.70
2007,03,30,14,14,222.40
2007,03,30,14,15,220.20
2007,03,30,14,16,222.20
2007,03,30,14,17,222.70
2007,03,30,14,18,212.70
2007,03,30,14,19,192.90
2007,03,30,14,20,170.00
2007,03,30,14,21,156.20
2007,03,30,14,22,152.10
2007,03,30,14,23,157.00
2007,03,30,14,24,154.10
2007,03,30,14,25,144.50
2007,03,30,14,26,133.10
2007,03,30,14,27,118.00
2007,03,30,14,28,106.80
2007,03,30,14,29,108.40
2007,03,30,14,30,107.20
2007,03,30,14,31,104.30
2007,03,30,14,32,106.80
2007,03,30,14,33,113.00
2007,03,30,14,34,114.00
2007,03,30,14,35,123.40
2007,03,30,14,36,128.20
2007,03,30,14,37,138.20
2007,03,30,14,38,150.20
2007,03,30,14,39,147.40
2007,03,30,14,40,147.10
2007,03,30,14,41,149.00
2007,03,30,14,42,149.00
2007,03,30,14,43,147.60
2007,03,30,14,44,147.10
2007,03,30,14,45,148.60
2007,03,30,14,46,149.00
2007,03,30,14,47,148.40
2007,03,30,14,48,151.30
2007,03,30,14,49,155.20
2007,03,30,14,50,161.30
2007,03,30,14,51,166.20
2007,03,30,14,52,167.00
2007,03,30,14,53,167.00
2007,03,30,14,54,163.20
2007,03,30,14,55,160.10
2007,03,30,14,56,155.90
2007,03,30,14,57,152.80
2007,03,30,14,58,151.00
2007,03,30,14,59,152.00
2007,03,30,15,00,157.50
2007,03,30,15,01,163.20
2007,03,30,15,02,168.30
2007,03,30,15,03,171.00
2007,03,30,15,04,170.20
2007,03,30,15,05,167.40
2007,03,30,15,06,163.60
2007,03,30,15,07,159.90
2007,03,30,15,08,156.90
2007,03,30,15,09,156.00
2007,03,30,15,10,155.40
2007,03,30,15,11,152.40
2007,03,30,15,12,148.90
2007,03,30,15,13,151.80
2007,03,30,15,14,161.00
2007,03,30,15,15,175.80
2007,03,30,15,16,188.30
2007,03,30,15,17,192.70
2007,03,30,15,18,193.00
2007,03,30,15,19,189.80
2007,03,30,15,20,184.80
2007,03,30,15,21,182.70
2007,03,30,15,22,181.00
2007,03,30,15,23,181.00
2007,03,30,15,24,181.00
2007,03,30,15,25,180.40
2007,03,30,15,26,178.10
2007,03,30,15,27,175.20
2007,03,30,15,28,174.00
2007,03,30,15,29,175.00
2007,03,30,15,30,175.00
2007,03,30,15,31,171.20
2007,03,30,15,32,167.90
2007,03,30,15,33,162.70
2007,03,30,15,34,153.80
2007,03,30,15,35,149.60
2007,03,30,15,36,146.60
2007,03,30,15,37,148.40
2007,03,30,15,38,155.00
2007,03,30,15,39,155.10
2007,03,30,15,40,153.10
2007,03,30,15,41,151.00
2007,03,30,15,42,148.70
2007,03,30,15,43,143.50
2007,03,30,15,44,138.40
2007,03,30,15,45,134.80
2007,03,30,15,46,133.60
2007,03,30,15,47,132.00
2007,03,30,15,48,132.90
2007,03,30,15,49,134.70
2007,03,30,15,50,135.90
2007,03,30,15,51,140.30
2007,03,30,15,52,142.90
2007,03,30,15,53,147.50
2007,03,30,15,54,157.30
2007,03,30,15,55,163.70
2007,03,30,15,56,163.80
2007,03,30,15,57,163.00
2007,03,30,15,58,167.20
2007,03,30,15,59,172.80
2007,03,30,16,00,172.40
2007,03,30,16,01,169.50
2007,03,30,16,02,165.50
2007,03,30,16,03,160.20
2007,03,30,16,04,155.90
2007,03,30,16,05,154.60
2007,03,30,16,06,148.10
2007,03,30,16,07,149.60
2007,03,30,16,08,154.00
2007,03,30,16,09,159.00
2007,03,30,16,10,161.50
2007,03,30,16,11,157.40
2007,03,30,16,12,149.30
2007,03,30,16,13,144.00
2007,03,30,16,14,137.90
2007,03,30,16,15,130.70
2007,03,30,16,16,125.00
2007,03,30,16,17,123.00
2007,03,30,16,18,125.20
2007,03,30,16,19,128.80
2007,03,30,16,20,131.30
2007,03,30,16,21,135.50
2007,03,30,16,22,138.50
2007,03,30,16,23,139.00
2007,03,30,16,24,139.00
2007,03,30,16,25,140.70
2007,03,30,16,26,145.50
2007,03,30,16,27,148.90
2007,03,30,16,28,151.00
2007,03,30,16,29,151.40
2007,03,30,16,30,155.00
2007,03,30,16,31,154.70
2007,03,30,16,32,152.60
2007,03,30,16,33,151.00
2007,03,30,16,34,151.00
2007,03,30,16,35,151.70
2007,03,30,16,36,153.00
2007,03,30,16,37,153.00
2007,03,30,16,38,153.00
2007,03,30,16,39,149.50
2007,03,30,16,40,141.10
2007,03,30,16,41,139.20
2007,03,30,16,42,141.00
2007,03,30,16,43,144.30
2007,03,30,16,44,154.60
2007,03,30,16,45,161.80
2007,03,30,16,46,164.60
2007,03,30,16,47,168.40
2007,03,30,16,48,171.70
2007,03,30,16,49,171.10
2007,03,30,16,50,162.40
2007,03,30,16,51,157.90
2007,03,30,16,52,154.60
2007,03,30,16,53,150.70
2007,03,30,16,54,147.60
2007,03,30,16,55,145.20
2007,03,30,16,56,141.80
2007,03,30,16,57,140.40
2007,03,30,16,58,139.00
2007,03,30,16,59,139.00
2007,03,30,17,00,139.90
2007,03,30,17,01,141.00
2007,03,30,17,02,141.00
2007,03,30,17,03,142.60
2007,03,30,17,04,147.00
2007,03,30,17,05,152.60
2007,03,30,17,06,155.00
2007,03,30,17,07,153.60
2007,03,30,17,08,149.20
2007,03,30,17,09,144.80
2007,03,30,17,10,142.30
2007,03,30,17,11,139.30
2007,03,30,17,12,137.10
2007,03,30,17,13,137.00
2007,03,30,17,14,136.90